Simultaneous Nadir Overpasses (SNOs) Predictions

Prediction of SNOs between GOES-16 and TERRA Satellite Orbit:

Table of predicted SNOs for the next 14.0 days since TLE Epoch: 5/23/2020
Index Date Time (GOES-16) GOES-16 Lat,Lon TERRA Lat,Lon Distance(km) Time Diff (sec)
1 05/24/2020 03:14:52 -0.02, -75.19 0.72, -71.59 408.82 80
2 05/24/2020 15:36:08 0.02, -75.20 0.34, -76.75 175.53 80
3 05/26/2020 15:26:36 0.01, -75.21 -0.27, -73.79 160.86 80
4 05/27/2020 03:48:00 -0.01, -75.19 -0.85, -78.98 431.31 80
5 05/28/2020 15:14:25 0.01, -75.21 -0.94, -70.84 497.62 80
6 05/29/2020 03:35:49 -0.01, -75.19 -0.17, -76.03 94.39 80
7 05/31/2020 03:20:57 -0.01, -75.20 0.44, -73.06 243.25 80
8 05/31/2020 15:42:12 0.00, -75.23 0.62, -78.23 340.77 80
9 06/02/2020 15:30:00 0.00, -75.24 -0.01, -75.27 2.70 80
10 06/04/2020 15:20:29 -0.00, -75.26 -0.63, -72.31 336.36 80
11 06/05/2020 03:41:52 0.01, -75.25 -0.48, -77.50 255.01 80




NCC Satellite Simultaneous Nadir Overpasses (SNOs) Prediction Service
